Location: Kitchener
(43.4500°N, 80.5000°W)
Time: 11:00:27
(UTC-04:00)

Daily predictions for brighter satellites

Satellite Brightness Start Highest point End
(mag) Time Altitude Azimuth Time Altitude Azimuth Time Altitude Azimuth
ALOS 2.4 20:29:01 10° SSE 20:33:37 60° ENE 20:38:14 10° N
Cosmos 1025 Rocket 3.2 20:29:40 10° N 20:34:04 81° W 20:38:23 10° S
Cosmos 1809 Rocket 4.5 20:28:28 10° S 20:34:37 80° E 20:40:47 10° N
Cosmos 1455 Rocket 3.4 20:35:19 10° SSE 20:39:25 43° E 20:43:33 10° NNE
Cosmos 2369 4.2 20:34:33 10° S 20:39:41 37° ESE 20:44:53 10° NE
H-2A R/B 3.0 20:36:05 10° SSE 20:39:51 53° ENE 20:43:43 10° N
Resurs 1-3 4.0 20:35:35 10° S 20:39:57 70° WSW 20:44:21 10° NNW
Cosmos 1461 3.2 20:36:32 10° NNW 20:40:31 46° NE 20:44:21 10° SE
NOSS 2-1 (E) 3.4 20:37:10 10° SSW 20:41:04 77° SE 20:45:36 10° NE
Meteor 1-23 Rocket 4.3 20:36:20 10° N 20:41:59 90° ENE 20:47:41 10° S
Meteor 1-29 3.9 20:39:28 10° N 20:42:50 54° WNW 20:46:13 10° SSW
Cosmos 1633 3.8 20:48:37 10° SSW 20:52:09 46° WNW 20:55:41 10° N
Cosmos 1939 Rocket 4.1 20:51:41 10° ESE 20:55:04 25° ENE 20:58:31 10° NNE
Lacrosse 5 3.1 20:51:13 10° NW 20:55:43 31° NNE 21:00:12 10° E
CZ-2D R/B 3.3 20:52:45 10° SSE 20:56:37 86° WSW 21:00:32 10° NNW
Resurs 01 Rocket 3.4 20:53:04 10° SSW 20:57:07 35° W 21:01:12 10° NNW
Cosmos 1934 Rocket 4.0 20:51:14 10° S 20:57:21 82° E 21:03:36 10° N
ATLAS CENTAUR R/B 4.0 20:55:13 10° WSW 20:59:36 29° NW 21:03:53 10° NNE
USA 215 4.4 20:58:44 10° ENE 21:04:26 33° NNE 21:10:08 10° NW
SPOT 5 4.3 21:02:06 13° ESE 21:05:18 23° ENE 21:09:04 10° NNE
Cosmos 220 Rocket 4.4 21:02:31 10° N 21:06:35 44° ENE 21:09:49 15° SE
Cosmos 1346 Rocket 3.0 21:06:03 10° NNW 21:09:59 73° W 21:13:56 10° S
EP 1 4.0 21:07:51 10° SSW 21:10:19 66° ESE 21:12:55 10° NE
Cosmos 2227 Rocket 2.2 21:06:48 10° NNW 21:12:31 89° ENE 21:18:10 10° SSE
Cosmos 1544 Rocket 4.3 21:08:52 10° SSW 21:13:10 58° W 21:17:32 10° N
Tiangong 1 0.9 21:11:23 10° W 21:14:29 78° S 21:16:25 21° E
USA 186 2.2 21:11:30 10° S 21:14:34 56° W 21:17:28 10° NNW
FENGYUN 3A 4.2 21:09:57 10° S 21:15:13 60° W 21:20:31 10° NNW
OTV 4 2.0 21:13:07 10° WSW 21:15:34 23° S 21:16:45 18° SSE
NOSS 7 (D) 4.3 21:12:54 10° SW 21:16:20 86° SE 21:19:45 10° NE
Cosmos 2208 Rocket 4.2 21:13:23 10° SSW 21:18:41 81° WNW 21:24:07 10° NNE
NOSS 3-4 (A) 4.2 21:13:26 10° NW 21:20:22 65° WSW 21:27:43 10° SSE
NOSS 3-4 (C) 4.2 21:13:32 10° NW 21:20:30 66° WSW 21:27:51 10° SSE
RESURS DK-1 3.7 21:17:04 10° N 21:20:31 25° NE 21:22:21 18° E
Cosmos 1656 3.9 21:15:38 10° S 21:20:58 45° ESE 21:26:15 10° NE
Cosmos 1500 3.7 21:18:30 15° SSE 21:21:11 36° E 21:24:39 10° NNE
BREEZE-M TANK 3.5 21:08:08 10° WNW 21:22:10 89° S 21:24:54 20° ESE
Cosmos 2298 Rocket 4.2 21:19:35 10° NNW 21:24:49 55° ENE 21:28:25 20° SE
Cosmos 2082 3.8 21:20:19 10° NNW 21:25:57 77° WSW 21:31:16 11° SSE
Cosmos 2297 Rocket 2.2 21:22:30 10° NNW 21:28:12 86° ENE 21:32:48 16° SSE
CZ-4 DEB 2.6 21:26:40 18° SSE 21:28:51 88° ENE 21:32:00 10° NNW
Cosmos 1340 3.9 21:31:22 10° NNE 21:34:29 24° ENE 21:34:56 23° E
Envisat 3.0 21:34:13 18° SSE 21:37:57 69° ENE 21:43:01 10° N
Cosmos 2173 Rocket 4.3 21:32:58 11° SSE 21:38:53 49° E 21:44:56 10° NNE
H-2A R/B 3.8 21:39:13 13° ENE 21:40:17 14° ENE 21:42:47 10° NNE
Cosmos 1937 Rocket 3.8 21:36:01 10° N 21:41:09 50° ENE 21:43:40 28° SE
Cosmos 1605 Rocket 4.4 21:36:06 10° SSW 21:42:24 66° W 21:48:39 10° N
SJ-11-01 4.4 21:38:17 12° S 21:42:33 75° WSW 21:47:15 10° NNW
Cosmos 1515 3.6 21:38:46 10° N 21:42:39 89° WSW 21:44:57 23° S
ASTEX 1 4.1 21:40:29 10° NNE 21:45:05 35° E 21:46:26 30° ESE
Terra 3.9 21:44:43 12° ENE 21:45:24 12° ENE 21:47:11 10° NE
OAO 2 Rocket 4.2 21:43:12 10° SW 21:47:34 30° S 21:48:33 28° SSE
Cosmos 2100 Rocket 4.0 21:42:59 10° S 21:49:11 64° E 21:55:20 10° NNE
YAOGAN 6 3.3 21:49:35 36° E 21:49:55 37° ENE 21:53:21 10° N
Cosmos 2061 Rocket 4.0 21:44:13 12° S 21:50:00 59° E 21:56:08 10° NNE
Cosmos 2150 Rocket 3.9 21:46:32 10° NNW 21:51:43 81° ENE 21:54:21 30° SSE
Iridium 4 Rocket 3.7 21:46:50 10° N 21:52:00 65° W 21:56:40 10° S
Cosmos 1743 2.9 21:53:16 45° SE 21:53:52 49° E 21:57:41 10° NNE
Cosmos 1825 Rocket 3.7 21:49:49 10° N 21:54:11 53° ENE 21:55:22 40° SE
Cosmos 972 Rocket 4.4 21:49:54 10° NNW 21:55:45 73° ENE 21:59:20 28° SSE
Cosmos 990 Rocket 4.3 21:51:53 10° N 21:57:02 51° ENE 21:58:46 36° ESE
MetOp-A 4.2 21:55:01 32° SE 21:57:27 61° ENE 22:02:43 10° N
Cosmos 1975 3.8 21:54:29 10° SSW 21:58:27 48° WNW 22:02:26 10° N
DELTA 2 R/B (1) 4.0 21:53:13 10° W 21:58:33 48° SSW 22:00:24 35° SE
SPOT 1/Viking Rocket 4.1 21:57:13 33° ESE 21:58:45 41° ENE 22:03:37 10° N
Cosmos 1066 Rocket 4.2 21:53:51 10° NNW 21:59:31 85° W 22:03:26 21° S
Cosmos 1953 Rocket 3.8 21:58:47 10° N 22:03:06 48° ENE 22:03:44 45° ESE
CZ-4B R/B 4.4 21:59:50 10° NE 22:03:04 27° ENE 22:03:04 27° ENE
Cosmos 1697 Rocket 2.6 22:02:09 10° SSW 22:07:48 81° ESE 22:13:28 10° NNE
H-2A R/B 1.9 22:06:31 41° S 22:07:52 79° WSW 22:12:01 10° NNW
Lacrosse 5 rocket 2.1 22:05:29 10° WNW 22:08:50 33° SW 22:09:24 31° SSW
ERS-1 Rocket 3.9 22:07:44 14° SSW 22:11:51 44° W 22:16:40 10° NNW
SL-16 R/B 4.1 22:15:31 14° ENE 22:15:31 14° ENE 22:16:44 10° NE
Cosmos 1842 4.0 22:10:25 10° N 22:13:32 37° NE 22:13:32 37° NE
deb Chang Zheng 4 3.7 22:11:07 10° NNE 22:15:37 80° WNW 22:18:17 24° SSW
NOAA 11 4.4 22:15:11 44° ESE 22:16:34 56° ENE 22:21:55 10° N
Cosmos 1898 Rocket 3.9 22:11:25 10° NNW 22:16:39 59° WSW 22:19:08 30° S
Nimbus 7 Rocket 4.5 22:15:32 10° NNE 22:21:38 84° WNW 22:27:42 10° SSW
Cosmos 1758 Rocket 3.4 22:17:53 10° N 22:22:15 66° E 22:22:20 66° E
Cosmos 1125 Rocket 4.2 22:17:59 10° N 22:22:47 36° ENE 22:23:14 35° ENE
Cosmos 1725 Rocket 4.1 22:22:45 45° SE 22:24:07 53° E 22:30:10 10° NNE
Cosmos 1763 Rocket 3.4 22:24:17 58° SE 22:24:44 61° ESE 22:29:44 10° NNE
Cosmos 1459 Rocket 4.1 22:21:24 12° SSW 22:27:01 72° W 22:33:08 10° N
Cosmos 2228 4.3 22:29:02 27° NE 22:29:02 27° NE 22:31:24 10° NNE
Cosmos 1980 Rocket 2.0 22:26:51 28° SSW 22:29:54 75° ESE 22:35:36 10° NNE
Meteor 1-15 Rocket 4.4 22:30:17 50° ESE 22:30:49 52° E 22:36:31 10° NNE
ARGOS 3.1 22:30:52 58° SE 22:31:52 74° ENE 22:37:16 10° N
BREEZE-M DEB (TANK) 4.3 22:29:33 10° WNW 22:33:47 87° NNE 22:38:48 34° ESE
Lacrosse 5 1.8 22:34:01 10° NW 22:39:04 69° SW 22:39:26 66° SSW
SPOT 5 3.7 22:41:22 33° SSW 22:43:06 46° W 22:47:48 10° NNW
Cosmos 2058 Rocket 3.2 22:44:37 72° NNE 22:44:37 72° NNE 22:48:43 10° N
Cosmos 841 Rocket 3.3 22:45:04 76° SSE 22:45:24 82° ESE 22:50:39 10° NNE
Cosmos 1666 3.9 22:47:18 37° N 22:47:18 37° N 22:49:42 10° N
USA 215 3.3 22:44:53 48° ESE 22:46:50 72° NE 22:53:21 10° NW
BREEZE-M DEB (TANK) 4.2 22:36:09 10° SW 22:48:50 57° SSE 22:49:08 56° SE
Tiangong 1 4.0 22:47:52 10° W 22:48:23 14° W 22:48:23 14° W
Cosmos 2233 Rocket 4.1 22:51:56 54° E 22:51:56 54° E 22:57:53 10° NNE
Cosmos 1606 Rocket 4.5 22:54:42 40° WSW 22:55:31 45° WNW 22:59:47 10° N
Cosmos 2263 Rocket 3.0 22:53:10 10° N 22:58:15 36° NE 22:58:15 36° NE
RESURS DK-1 3.8 22:54:54 10° NW 22:58:17 31° W 22:58:17 31° W
Cosmos 2322 Rocket 3.1 23:03:22 35° NE 23:03:22 35° NE 23:06:48 10° NNE
CZ-4C R/B 4.3 23:05:10 49° N 23:05:10 49° N 23:08:30 10° N
SL-08 RB Rocket 4.2 23:07:24 58° WNW 23:07:24 58° WNW 23:11:39 10° NNW
Landsat 7 4.1 23:07:46 65° NNW 23:07:46 65° NNW 23:11:51 10° NNW
Cosmos 2360 4.2 23:06:40 63° SW 23:07:34 79° WNW 23:13:20 10° NNE
Meteor 2-9 Rocket 4.4 23:10:24 58° WSW 23:11:09 65° WNW 23:16:34 10° N
CZ-4 R/B 4.3 23:10:32 10° N 23:14:27 58° NNW 23:14:27 58° NNW
Cosmos 372 Rocket 4.5 23:12:20 10° NNW 23:16:28 53° NNE 23:16:28 53° NNE
BREEZE-M DEB (TANK) 3.6 23:01:01 10° WNW 23:18:03 86° NNE 23:18:46 72° ESE
H-2A R/B 2.3 23:19:51 63° NW 23:19:51 63° NW 23:24:03 10° NNW
Terra 2.5 23:23:37 52° NNW 23:23:37 52° NNW 23:27:13 10° NNW
GEOS 3 Rocket 3.9 23:25:48 10° NNE 23:30:25 61° NNW 23:30:25 61° NNW
BREEZE-M DEB (TANK) 4.2 23:43:09 10° W 23:48:16 36° W 23:48:16 36° W
